Location: Newark
(45.9456°N, 15.4064°E)
Time: 13:31:41
(UTC+00:00)

SR - Pass Details

Date: 01 February 2020
Orbit: 575 x 880 km, 66.7° (Epoch: 22 February)

Event Time Altitude Azimuth Distance (km) Brightness Sun altitude
Rises 03:42:19 0° 328° (NNW) 3,403 - -27.8°
Reaches altitude 10° 03:44:55 10° 333° (NNW) 2,428 - -27.3°
Exits shadow 03:48:29 37° 353° (N) 1,225 ? -26.7°
Maximum altitude 03:50:26 57° 51° (NE) 917 ? -26.4°
Drops below altitude 10° 03:55:27 10° 130° (SE) 2,220 ? -25.5°
Sets 03:57:44 0° 135° (SE) 3,088 ? -25.1°
